Jacksonville, FL

12:40 AM EDT on September 29, 2016 (GMT -0400)
Cecil

Weather History for KVQQ - August, 2014

Change the Weather History Date:

Tuesday, August 26, 2014

  Actual Average (KJAX) Record (KJAX)
Temperature  
Mean Temperature 76 °F 81 °F  
Max Temperature 84 °F 90 °F 98 °F (1872)
Min Temperature 68 °F 72 °F 64 °F (1997)
Degree Days  
Heating Degree Days 0 0  
Month to date heating degree days 0  
Since 1 June heating degree days 0  
Since 1 July heating degree days 0  
Cooling Degree Days 11 16  
Month to date cooling degree days 439  
Year to date cooling degree days 1908  
Since 1 June cooling degree days 1424  
Growing Degree Days 26 (Base 50)    
Moisture  
Dew Point 72 °F    
Average Humidity 91    
Maximum Humidity 100    
Minimum Humidity 66    
Precipitation  
Precipitation 0.00 in 0.26 in 3.74 in (1935)
Month to date precipitation 5.52  
Year to date precipitation 34.08  
Snow  
Snow 0.00 in 0.00 in 0.00 in (2002)
Month to date snowfall 0.0  
Since 1 June snowfall 0.0  
Since 1 July snowfall 0.0  
Snow Depth -    
Sea Level Pressure  
Sea Level Pressure 29.97 in    
Wind  
Wind Speed 7 mph (NNE)    
Max Wind Speed 15 mph    
Max Gust Speed 23 mph    
Visibility 9 miles    
Events Rain    
T = Trace of Precipitation, MM = Missing Value Source: NWS Daily Summary

Daily Weather History Graph

Daily Weather History Graph

Search for Another Location

Airport or City:

Trip Planner

Search our weather history database for the weather conditions in past years. The results will help you decide how hot, cold, wet, or windy it might be!

Date:

Astronomy

Aug. 26, 2014 Rise Set
Actual Time 7:00 AM EDT 7:57 PM EDT
Civil Twilight 6:36 AM EDT 8:21 PM EDT
Nautical Twilight 6:07 AM EDT 8:50 PM EDT
Astronomical Twilight 5:37 AM EDT 9:20 PM EDT
Moon 7:52 AM EDT (8/26) 8:27 PM EDT (8/26)
Length of Visible Light 13h 45m
Length of Day
12h 56m
New Moon, 1% of the Moon is Illuminated
Aug 26
New Moon
Sep 2
First Quarter
Sep 8
Full
Sep 15
Last Quarter
Sep 24
New

Hourly Weather History & Observations

Time (EDT) Temp. Heat Index Dew Point Humidity Pressure Visibility Wind Dir Wind Speed Gust Speed Precip Events Conditions
12:15 AM 71.6 °F - 71.6 °F 100% 29.95 in 10.0 mi North 4.6 mph - N/A   Clear
12:35 AM 71.6 °F - 71.6 °F 100% 29.95 in 10.0 mi North 4.6 mph - N/A   Clear
12:55 AM 73.4 °F - 71.6 °F 94% 29.95 in 10.0 mi North 5.8 mph - N/A   Clear
1:15 AM 73.4 °F - 71.6 °F 94% 29.96 in 10.0 mi North 6.9 mph - N/A   Clear
1:35 AM 73.4 °F - 73.4 °F 100% 29.95 in 10.0 mi North 8.1 mph - N/A   Clear
1:55 AM 73.4 °F - 71.6 °F 94% 29.95 in 10.0 mi North 8.1 mph - N/A   Clear
2:15 AM 73.4 °F - 71.6 °F 94% 29.95 in 10.0 mi North 6.9 mph - N/A   Clear
2:35 AM 73.4 °F - 71.6 °F 94% 29.94 in 10.0 mi North 4.6 mph - N/A   Clear
2:55 AM 73.4 °F - 71.6 °F 94% 29.94 in 10.0 mi North 5.8 mph - N/A   Clear
3:15 AM 73.4 °F - 71.6 °F 94% 29.94 in 10.0 mi North 5.8 mph - N/A   Clear
3:35 AM 73.4 °F - 71.6 °F 94% 29.93 in 10.0 mi North 6.9 mph - N/A   Clear
3:55 AM 73.4 °F - 71.6 °F 94% 29.93 in 10.0 mi North 6.9 mph - N/A   Clear
4:15 AM 73.4 °F - 71.6 °F 94% 29.93 in 10.0 mi North 4.6 mph - N/A   Clear
4:35 AM 73.4 °F - 71.6 °F 94% 29.93 in 10.0 mi North 5.8 mph - N/A   Clear
4:55 AM 71.6 °F - 71.6 °F 100% 29.93 in 10.0 mi North 6.9 mph - N/A   Partly Cloudy
5:15 AM 73.4 °F - 71.6 °F 94% 29.93 in 10.0 mi North 8.1 mph - N/A   Partly Cloudy
5:35 AM 73.4 °F - 71.6 °F 94% 29.94 in 10.0 mi North 6.9 mph - N/A   Clear
5:55 AM 73.4 °F - 71.6 °F 94% 29.94 in 10.0 mi North 5.8 mph - N/A   Clear
6:15 AM 71.6 °F - 71.6 °F 100% 29.94 in 10.0 mi North 5.8 mph - N/A   Clear
6:35 AM 71.6 °F - 71.6 °F 100% 29.94 in 10.0 mi North 5.8 mph - N/A   Clear
6:50 AM 71.6 °F - 71.6 °F 100% 29.94 in 10.0 mi North 6.9 mph - N/A   Clear
7:50 AM 73.4 °F - 71.6 °F 94% 29.96 in 10.0 mi NNE 9.2 mph - N/A   Scattered Clouds
8:35 AM 75.2 °F - 71.6 °F 89% 29.97 in 10.0 mi NNE 12.7 mph - N/A   Mostly Cloudy
8:50 AM 75.2 °F - 73.4 °F 94% 29.98 in 7.0 mi NNE 13.8 mph - N/A   Mostly Cloudy
9:05 AM 75.2 °F - 73.4 °F 94% 29.98 in 10.0 mi NNE 9.2 mph - N/A   Scattered Clouds
9:50 AM 80.6 °F 86.2 °F 75.2 °F 84% 29.98 in 10.0 mi NNE 13.8 mph - N/A   Scattered Clouds
10:25 AM 82.4 °F 89.5 °F 75.2 °F 79% 29.99 in 10.0 mi NE 10.4 mph - N/A   Mostly Cloudy
10:50 AM 82.4 °F 89.5 °F 75.2 °F 79% 29.99 in 10.0 mi NNE 10.4 mph - N/A   Mostly Cloudy
11:50 AM 84.2 °F 89.6 °F 71.6 °F 66% 30.00 in 10.0 mi NNE 13.8 mph - N/A   Scattered Clouds
12:50 PM 84.2 °F 90.9 °F 73.4 °F 70% 30.00 in 10.0 mi NE 13.8 mph - N/A   Mostly Cloudy
1:50 PM 82.4 °F 88.2 °F 73.4 °F 74% 29.99 in 7.0 mi NNE 15.0 mph 23.0 mph N/A Rain Light Rain
2:50 PM 84.2 °F 90.9 °F 73.4 °F 70% 29.98 in 7.0 mi NNE 11.5 mph 17.3 mph N/A   Mostly Cloudy
3:50 PM 80.6 °F 85.4 °F 73.4 °F 79% 29.97 in 7.0 mi ENE 11.5 mph - N/A   Mostly Cloudy
4:50 PM 77.0 °F - 73.4 °F 89% 29.97 in 7.0 mi NNE 13.8 mph - N/A   Mostly Cloudy
5:50 PM 77.0 °F - 73.4 °F 89% 29.99 in 7.0 mi East 11.5 mph 21.9 mph N/A   Mostly Cloudy
6:50 PM 78.8 °F - 73.4 °F 83% 29.98 in 7.0 mi East 4.6 mph - N/A   Partly Cloudy
7:50 PM 77.0 °F - 73.4 °F 89% 29.99 in 7.0 mi NE 5.8 mph - N/A   Scattered Clouds
8:15 PM 77.0 °F - 71.6 °F 83% 29.99 in 10.0 mi NNE 6.9 mph - N/A   Clear
8:35 PM 75.2 °F - 71.6 °F 89% 29.99 in 10.0 mi North 4.6 mph - N/A   Clear
8:55 PM 75.2 °F - 71.6 °F 89% 30.00 in 10.0 mi North 5.8 mph - N/A   Clear
9:15 PM 75.2 °F - 71.6 °F 89% 30.00 in 10.0 mi North 4.6 mph - N/A   Clear
9:35 PM 73.4 °F - 71.6 °F 94% 30.00 in 10.0 mi NNW 3.5 mph - N/A   Clear
10:15 PM 71.6 °F - 69.8 °F 94% 30.01 in 10.0 mi Calm Calm - N/A   Clear
10:35 PM 69.8 °F - 69.8 °F 100% 30.01 in 7.0 mi Calm Calm - N/A   Clear
10:55 PM 69.8 °F - 69.8 °F 100% 30.00 in 10.0 mi Calm Calm - N/A   Clear
11:15 PM 68.0 °F - 68.0 °F 100% 30.00 in 10.0 mi Calm Calm - N/A   Clear
11:35 PM 68.0 °F - 68.0 °F 100% 30.00 in 4.0 mi Calm Calm - N/A   Clear
11:55 PM 68.0 °F - 68.0 °F 100% 30.00 in 6.0 mi Calm Calm - N/A   Clear